Sulphur Springs, TX

9:33 AM CST on January 22, 2017 (GMT -0600)
Sulphur Springs Municipal

Weather History for KSLR - May, 2013

Change the Weather History Date:

Thursday, May 2, 2013

  Actual Average (KGVT) Record (KGVT)
Temperature  
Mean Temperature 54 °F -  
Max Temperature 66 °F 77 °F 87 °F (1997)
Min Temperature 41 °F 62 °F 41 °F (2013)
Degree Days  
Heating Degree Days 11    
Growing Degree Days 4 (Base 50)    
Moisture  
Dew Point 49 °F    
Average Humidity 82    
Maximum Humidity 94    
Minimum Humidity 63    
Precipitation  
Precipitation 0.05 in - - ()
Sea Level Pressure  
Sea Level Pressure 30.16 in    
Wind  
Wind Speed 14 mph (North)    
Max Wind Speed 28 mph    
Max Gust Speed 36 mph    
Visibility 8 miles    
Events Rain    
Averages and records for this station are not official NWS values.
T = Trace of Precipitation, MM = Missing Value Source: NWS Daily Summary

Daily Weather History Graph

Daily Weather History Graph

Search for Another Location

Airport or City:

Trip Planner

Search our weather history database for the weather conditions in past years. The results will help you decide how hot, cold, wet, or windy it might be!

Date:

Astronomy

May. 02, 2013 Rise Set
Actual Time 6:33 AM CDT 8:05 PM CDT
Civil Twilight 6:07 AM CDT 8:32 PM CDT
Nautical Twilight 5:35 AM CDT 9:04 PM CDT
Astronomical Twilight 5:02 AM CDT 9:37 PM CDT
Moon 1:58 AM CDT (5/2) 1:18 PM CDT (5/2)
Length of Visible Light 14h 25m
Length of Day
13h 32m
Waning Gibbous, 47% of the Moon is Illuminated
May 2
Waning Gibbous
May 9
New
May 17
First Quarter
May 24
Full
May 31
Last Quarter

Hourly Weather History & Observations

Time (CDT) Temp. Windchill Dew Point Humidity Pressure Visibility Wind Dir Wind Speed Gust Speed Precip Events Conditions
12:15 AM 66.2 °F - 59.0 °F 78% 29.99 in 10.0 mi ENE 6.9 mph - N/A   Scattered Clouds
12:35 AM 66.2 °F - 60.8 °F 83% 30.00 in 10.0 mi ENE 9.2 mph - N/A   Mostly Cloudy
12:55 AM 66.2 °F - 60.8 °F 83% 30.00 in 10.0 mi ENE 10.4 mph 17.3 mph N/A   Overcast
1:15 AM 66.2 °F - 60.8 °F 83% 30.00 in 10.0 mi East 10.4 mph - N/A   Overcast
1:35 AM 66.2 °F - 60.8 °F 83% 30.01 in 10.0 mi East 9.2 mph - N/A   Overcast
1:55 AM 66.2 °F - 60.8 °F 83% 30.03 in 10.0 mi ENE 5.8 mph - N/A   Overcast
2:15 AM 66.2 °F - 60.8 °F 83% 30.03 in 10.0 mi ENE 6.9 mph - N/A   Overcast
2:35 AM 66.2 °F - 60.8 °F 83% 30.03 in 10.0 mi ENE 6.9 mph - N/A   Overcast
2:55 AM 66.2 °F - 60.8 °F 83% 30.02 in 10.0 mi NE 5.8 mph - N/A   Overcast
3:15 AM 66.2 °F - 60.8 °F 83% 30.02 in 10.0 mi NE 6.9 mph - N/A   Overcast
3:35 AM 66.2 °F - 60.8 °F 83% 30.03 in 10.0 mi NE 6.9 mph - N/A   Overcast
3:55 AM 66.2 °F - 60.8 °F 83% 30.02 in 10.0 mi NE 5.8 mph - N/A   Overcast
4:15 AM 66.2 °F - 60.8 °F 83% 30.02 in 10.0 mi NNE 5.8 mph - N/A   Overcast
4:35 AM 66.2 °F - 60.8 °F 83% 30.03 in 10.0 mi North 6.9 mph - N/A   Overcast
4:55 AM 64.4 °F - 60.8 °F 88% 30.03 in 10.0 mi NNE 5.8 mph - N/A   Overcast
5:15 AM 64.4 °F - 60.8 °F 88% 30.04 in 10.0 mi North 6.9 mph - N/A   Overcast
5:35 AM 64.4 °F - 60.8 °F 88% 30.04 in 10.0 mi North 9.2 mph - N/A   Overcast
5:55 AM 64.4 °F - 60.8 °F 88% 30.05 in 10.0 mi North 10.4 mph - N/A   Overcast
6:15 AM 64.4 °F - 60.8 °F 88% 30.06 in 10.0 mi North 8.1 mph - N/A   Overcast
6:35 AM 64.4 °F - 60.8 °F 88% 30.07 in 10.0 mi North 13.8 mph - N/A Rain Light Rain
6:55 AM 59.0 °F - 51.8 °F 77% 30.09 in 7.0 mi NNW 23.0 mph 29.9 mph N/A Rain Rain
7:15 AM 55.4 °F - 51.8 °F 88% 30.10 in 3.0 mi NNW 21.9 mph 29.9 mph 0.01 in Rain Light Rain
7:35 AM 53.6 °F - 51.8 °F 94% 30.12 in 2.5 mi NNW 17.3 mph 24.2 mph 0.01 in Rain Light Rain
7:55 AM 53.6 °F - 50.0 °F 88% 30.13 in 3.0 mi NNW 19.6 mph 26.5 mph 0.01 in   Overcast
8:15 AM 53.6 °F - 50.0 °F 88% 30.14 in 4.0 mi NNW 19.6 mph 25.3 mph N/A   Overcast
8:35 AM 53.6 °F - 50.0 °F 88% 30.15 in 5.0 mi NNW 18.4 mph 24.2 mph N/A   Overcast
8:55 AM 51.8 °F - 50.0 °F 94% 30.15 in 1.8 mi NNW 18.4 mph 23.0 mph N/A   Overcast
9:15 AM 53.6 °F - 50.0 °F 88% 30.16 in 7.0 mi NNW 16.1 mph 24.2 mph N/A   Overcast
9:35 AM 53.6 °F - 50.0 °F 88% 30.16 in 10.0 mi NNW 18.4 mph 26.5 mph 0.01 in   Overcast
9:55 AM 53.6 °F - 48.2 °F 82% 30.17 in 10.0 mi NNW 18.4 mph - 0.01 in   Overcast
10:15 AM 53.6 °F - 48.2 °F 82% 30.17 in 10.0 mi NNW 17.3 mph - N/A   Overcast
10:35 AM 55.4 °F - 48.2 °F 77% 30.17 in 10.0 mi North 18.4 mph 24.2 mph N/A   Overcast
10:55 AM 55.4 °F - 48.2 °F 77% 30.18 in 10.0 mi NNW 21.9 mph 26.5 mph N/A   Overcast
11:15 AM 55.4 °F - 46.4 °F 72% 30.18 in 10.0 mi North 16.1 mph 25.3 mph N/A   Overcast
11:35 AM 57.2 °F - 48.2 °F 72% 30.19 in 10.0 mi North 18.4 mph 26.5 mph N/A   Overcast
11:55 AM 57.2 °F - 46.4 °F 67% 30.19 in 10.0 mi NNW 18.4 mph - N/A   Overcast
12:15 PM 59.0 °F - 46.4 °F 63% 30.19 in 10.0 mi NNW 18.4 mph 23.0 mph N/A   Mostly Cloudy
12:35 PM 55.4 °F - 46.4 °F 72% 30.19 in 10.0 mi NNW 21.9 mph - N/A   Overcast
12:55 PM 55.4 °F - 46.4 °F 72% 30.19 in 10.0 mi North 23.0 mph 27.6 mph N/A   Overcast
1:15 PM 55.4 °F - 46.4 °F 72% 30.19 in 10.0 mi NNW 24.2 mph 27.6 mph N/A   Overcast
1:35 PM 55.4 °F - 46.4 °F 72% 30.20 in 10.0 mi NNW 23.0 mph 28.8 mph N/A   Overcast
1:55 PM 53.6 °F - 44.6 °F 72% 30.21 in 10.0 mi NNW 21.9 mph 25.3 mph N/A   Overcast
2:15 PM 53.6 °F - 44.6 °F 72% 30.21 in 10.0 mi NNW 23.0 mph 29.9 mph N/A   Overcast
2:35 PM 53.6 °F - 44.6 °F 72% 30.21 in 10.0 mi NNW 21.9 mph 31.1 mph N/A   Overcast
2:55 PM 53.6 °F - 44.6 °F 72% 30.22 in 10.0 mi NNW 19.6 mph 24.2 mph N/A   Overcast
3:15 PM 53.6 °F - 44.6 °F 72% 30.21 in 10.0 mi NW 21.9 mph 28.8 mph N/A   Overcast
3:35 PM 51.8 °F - 44.6 °F 76% 30.21 in 10.0 mi NW 21.9 mph - N/A   Overcast
3:55 PM 50.0 °F - 44.6 °F 82% 30.21 in 10.0 mi NW 16.1 mph 25.3 mph N/A   Overcast
4:15 PM 50.0 °F - 44.6 °F 82% 30.21 in 10.0 mi NW 19.6 mph 26.5 mph N/A   Overcast
4:35 PM 50.0 °F - 44.6 °F 82% 30.22 in 10.0 mi NW 20.7 mph 28.8 mph N/A   Mostly Cloudy
4:55 PM 50.0 °F - 42.8 °F 76% 30.23 in 10.0 mi NNW 24.2 mph 28.8 mph N/A   Mostly Cloudy
5:15 PM 48.2 °F - 44.6 °F 87% 30.23 in 3.0 mi NW 23.0 mph 29.9 mph N/A   Overcast
5:35 PM 46.4 °F 38.7 °F 42.8 °F 87% 30.24 in 7.0 mi NW 20.7 mph 27.6 mph N/A   Overcast
5:55 PM 46.4 °F 37.5 °F 41.0 °F 81% 30.23 in 7.0 mi NNW 27.6 mph 33.4 mph N/A   Mostly Cloudy
6:15 PM 46.4 °F 38.3 °F 41.0 °F 81% 30.23 in 10.0 mi NNW 23.0 mph 35.7 mph N/A Rain Light Rain
6:35 PM 46.4 °F 38.1 °F 41.0 °F 81% 30.24 in 10.0 mi NNW 24.2 mph 29.9 mph N/A   Overcast
6:55 PM 46.4 °F 39.2 °F 41.0 °F 81% 30.24 in 10.0 mi NNW 18.4 mph 28.8 mph N/A   Overcast
7:15 PM 46.4 °F 38.5 °F 41.0 °F 81% 30.25 in 10.0 mi NNW 21.9 mph 31.1 mph N/A   Overcast
7:35 PM 44.6 °F 36.4 °F 41.0 °F 87% 30.25 in 10.0 mi NNW 20.7 mph 31.1 mph N/A Rain Light Rain
7:55 PM 44.6 °F 35.3 °F 41.0 °F 87% 30.26 in 1.2 mi NNW 26.5 mph 34.5 mph N/A   Unknown
8:15 PM 44.6 °F 36.1 °F 41.0 °F 87% 30.27 in 7.0 mi NNW 21.9 mph 31.1 mph N/A   Overcast
8:35 PM 44.6 °F 35.7 °F 41.0 °F 87% 30.27 in 7.0 mi NNW 24.2 mph 28.8 mph N/A Rain Light Rain
8:55 PM 44.6 °F 36.1 °F 41.0 °F 87% 30.28 in 5.0 mi NNW 21.9 mph 28.8 mph N/A   Overcast
9:15 PM 42.8 °F 33.8 °F 39.2 °F 87% 30.29 in 3.0 mi NNW 21.9 mph 31.1 mph N/A Rain Light Rain
9:35 PM 42.8 °F 34.0 °F 39.2 °F 87% 30.29 in 5.0 mi NNW 20.7 mph 32.2 mph N/A Rain Light Rain
9:55 PM 42.8 °F 34.3 °F 39.2 °F 87% 30.30 in 5.0 mi NNW 19.6 mph 27.6 mph 0.01 in Rain Light Rain
10:15 PM 42.8 °F 33.5 °F 39.2 °F 87% 30.30 in 5.0 mi NNW 23.0 mph 32.2 mph N/A Rain Light Rain
10:35 PM 42.8 °F 33.3 °F 39.2 °F 87% 30.30 in 7.0 mi NNW 24.2 mph 29.9 mph N/A Rain Light Rain
10:55 PM 42.8 °F 33.8 °F 39.2 °F 87% 30.29 in 7.0 mi NNW 21.9 mph 29.9 mph N/A Rain Light Rain
11:15 PM 42.8 °F 33.5 °F 39.2 °F 87% 30.28 in 5.0 mi NNW 23.0 mph 28.8 mph N/A   Light Drizzle
11:35 PM 42.8 °F 33.3 °F 37.4 °F 81% 30.28 in 4.0 mi NNW 24.2 mph 32.2 mph 0.01 in Rain Light Rain
11:55 PM 41.0 °F 30.5 °F 37.4 °F 87% 30.28 in 7.0 mi North 26.5 mph 34.5 mph 0.02 in Rain Light Rain